STARLINK-32364, 61622

Orbit data source: Space-Track

STARLINK-32364, 61622 is a payload satellite owned by SpaceX/Seattle (US) in LEO that was launched on Wed, 23 Oct 2024 UTC via an FALCON 9 launch vehicle from the Air Force Eastern Test Range (AFETR). Payloads include a variety of satellites, spacecraft, and rockets equipped with specific instruments for various scientific and technological missions. These include communications satellites like Starlink; space stations such as the ISS; scientific satellites like the Hubble; Earth observation satellites from companies like Planet Labs, Umbra, and HawkEye 360; GPS; miniature CubeSats for education and research; and military/defense satellites.

Loading next visibility...
STARLINK-32364 details
Identifier
61622, 2024-191B
Orbit
LEO
Last TLE update16 hours ago
Origin
Flag of USSpaceX/Seattle (US)
ManufacturerSpaceX/Seattle
MissionOperational spacecraft
Bus & MotorSTARLINK V2M, Unknown motor
Mass730 kg wet, ~700 kg dry
Launch date (UTC)
2024-10-23 (2 months ago)
Launch vehicle
FALCON 9
Launch site
Air Force Eastern Test Range (AFETR)
Object type
Payload
Rocket body
Debris
Shape & HBRUnknown
Radar Cross SectionLarge (>1 m²)

Expand to show TLE details & history

TLE from 16 hours ago
0 STARLINK-32364
1 61622U 24191B   24348.00132201 -.00006153  00000-0 -14003-3 0  9992
2 61622  42.9983 200.3584 0001528 251.5709 108.4981 15.40724978  8984
Epoch: 2024-12-13T00:01Z
Definitive object data (Epoch: 2024-12-13T00:01:54.221Z)
Latitude-0.00006°
Longitude117.70885°
Altitude444.073 km
Speed7.647 km/s
True Right ascension13h 21m 26s
True Declination0° 00' 00"
Sunlit
Object was in daylight at TLE epoch
Visualization TLE readout
Latitude43.13716°
Longitude-158.27498°
Altitude448.147 km
Speed7.649 km/s
Apparent Right ascension22h 40m 11s
Apparent Declination5° 59' 59"
Sunlit
Object is in daylight
Visualization observer readout
Local Sidereal Time14:29:10
Azimuth63.039° ENE
Elevation-20.22°
Doppler factor1
Orbital elements
Apogee altitude446.968 km
Perigee altitude444.882 km
Semi-major axis6,824.062 km
Eccentricity0.0001528
Inclination42.9983°
RAAN200.3584°
Arg. of periapsis251.5709°
True anomaly108.5147°
Mean anomaly108.4981°
Eccentric anomaly108.5064°
Mean motion3.85016 °/min
BSTAR-0.00014003
Orbital period93.5 mins
Loading maneuver chart data...
Loading historical data...
Loading historical data...
Loading historical data...
Loading historical data...
Loading historical data...
Loading historical data...
Loading historical data...

STARLINK-32364 Visibility forecast

Observer location: undefined°, undefined

Span
Click to sort rows by Start time (UTC) header in descending order
Start Az.
Max El. time (UTC)
Max El. Az.
Max El.
End time (UTC)
End Az.
5 mins2024-12-13 17:20:20.049Z204.967° SW2024-12-13 17:23:20.049Z141.048° SSE24.025°2024-12-13 17:25:20.049Z97.129° ESE
5 mins2024-12-13 18:59:20.049Z261.397° W2024-12-13 19:01:20.049Z42.168° NE42.671°2024-12-13 19:04:20.049Z70.755° E
5 mins2024-12-13 20:37:20.049Z295.09° NW2024-12-13 20:39:20.049Z6.602° NNE37.145°2024-12-13 20:42:20.049Z76.887° E
5 mins2024-12-13 22:15:20.049Z287.403° WNW2024-12-13 22:17:20.049Z270.845° WNW44.587°2024-12-13 22:20:20.049Z110.736° ESE
|